User: anonymous   Login
Location: Unspecified
(0.0000°N, 0.0000°E)
Time: 16:20:40
(UTC+00:00)
Language:

SN 39 - Orbit

View from above orbital plane
View from above orbital plane
View from above satellite
View from above satellite

Ground track
Ground track

The orbit data is extracted from the following two-line orbital elements,

1   671U 63038C   19015.96190825  .00000064  00000-0  93700-4 0  9993
2   671  90.0637 328.9876 0039791 188.1456 171.9050 13.44816020711456
Epoch (UTC): 15 January 2019 23:05:08
Eccentricity: 0.0039791
inclination: 90.0637°
perigee height: 1061 km
apogee height: 1121 km
right ascension of ascending node: 328.9876°
argument of perigee: 188.1456°
revolutions per day: 13.44816020
mean anomaly at epoch: 171.9050°
orbit number at epoch: 71145

The dashed part of the orbit path shows where the satellite is in the earth's shadow,  

DLR